| time (UTC) | temp F | wind direction | speed MPH | gust MPH | rain 1hr in | rain 24hr in | rain mn in | humidity % | barometer mb |
| 20260504130204 | 46 | 260 | 7.0 | 10.0 | 0.00 | 0.00 | 0.00 | 75 | 1017.2 |
| 20260504120204 | 36 | 233 | 4.0 | 5.0 | 0.00 | 0.00 | 0.00 | 93 | 1016.8 |
| 20260504110704 | 34 | 280 | 5.0 | 5.0 | 0.00 | 0.00 | 0.00 | 92 | 1016.4 |
| 20260504110205 | 34 | 280 | 5.0 | 5.0 | 0.00 | 0.00 | 0.00 | 92 | 1016.3 |
| 20260504100204 | 33 | 280 | 5.0 | 5.0 | 0.00 | 0.00 | 0.00 | 92 | 1016.5 |
| 20260504081704 | 33 | 280 | 5.0 | 5.0 | 0.00 | 0.00 | 0.00 | 89 | 1016.5 |
| 20260504081204 | 33 | 280 | 5.0 | 5.0 | 0.00 | 0.00 | 0.00 | 89 | 1016.4 |
| 20260504080704 | 33 | 280 | 5.0 | 5.0 | 0.00 | 0.00 | 0.00 | 89 | 1016.4 |
| 20260504080203 | 33 | 280 | 5.0 | 5.0 | 0.00 | 0.00 | 0.00 | 89 | 1016.3 |
| 20260504070204 | 34 | 280 | 5.0 | 5.0 | 0.00 | 0.00 | 0.00 | 87 | 1016.6 |
| 20260504050704 | 35 | 280 | 5.0 | 5.0 | 0.00 | 0.00 | 0.00 | 83 | 1017.1 |
| 20260504050204 | 35 | 278 | 4.0 | 5.0 | 0.00 | 0.00 | 0.00 | 83 | 1017.1 |
| 20260504045704 | 35 | 220 | 3.0 | 3.0 | 0.00 | 0.00 | 0.00 | 83 | 1017.1 |
| 20260504045205 | 36 | 220 | 3.0 | 3.0 | 0.00 | 0.00 | 0.00 | 83 | 1017.1 |
| 20260504044704 | 36 | 220 | 3.0 | 3.0 | 0.00 | 0.00 | 0.00 | 83 | 1017.0 |
| 20260504044204 | 36 | 220 | 3.0 | 3.0 | 0.00 | 0.00 | 0.00 | 83 | 1017.0 |
| 20260504043703 | 36 | 220 | 3.0 | 3.0 | 0.00 | 0.00 | 0.00 | 82 | 1017.0 |
| 20260504043204 | 36 | 220 | 3.0 | 3.0 | 0.00 | 0.00 | 0.00 | 81 | 1017.0 |
| 20260504042704 | 36 | 220 | 3.0 | 3.0 | 0.00 | 0.00 | 0.00 | 81 | 1017.1 |
| 20260504042204 | 36 | 220 | 3.0 | 3.0 | 0.00 | 0.00 | 0.00 | 81 | 1017.1 |
| 20260504041704 | 36 | 220 | 3.0 | 3.0 | 0.00 | 0.00 | 0.00 | 81 | 1017.2 |
| 20260504041204 | 36 | 220 | 3.0 | 3.0 | 0.00 | 0.00 | 0.00 | 80 | 1017.2 |
| 20260504040204 | 37 | 220 | 3.0 | 3.0 | 0.00 | 0.00 | 0.00 | 80 | 1017.3 |
| 20260504035704 | 37 | 220 | 3.0 | 3.0 | 0.00 | 0.00 | 0.00 | 79 | 1017.2 |
| 20260504035204 | 37 | 220 | 3.0 | 3.0 | 0.00 | 0.00 | 0.00 | 79 | 1017.1 |
| 20260504034704 | 36 | 220 | 3.0 | 3.0 | 0.00 | 0.00 | 0.00 | 80 | 1017.1 |
| 20260504034204 | 36 | 220 | 3.0 | 3.0 | 0.00 | 0.00 | 0.00 | 80 | 1017.1 |
| 20260504033706 | 36 | 220 | 3.0 | 3.0 | 0.00 | 0.00 | 0.00 | 79 | 1016.9 |
| 20260504033204 | 37 | 220 | 3.0 | 3.0 | 0.00 | 0.00 | 0.00 | 79 | 1017.1 |
| 20260504032704 | 37 | 220 | 3.0 | 3.0 | 0.00 | 0.00 | 0.00 | 79 | 1017.0 |
| 20260504032204 | 37 | 220 | 3.0 | 3.0 | 0.00 | 0.00 | 0.00 | 78 | 1017.2 |
| 20260504031704 | 37 | 220 | 3.0 | 3.0 | 0.00 | 0.00 | 0.00 | 78 | 1017.2 |
| 20260504031204 | 37 | 220 | 3.0 | 3.0 | 0.00 | 0.00 | 0.00 | 77 | 1017.1 |
| 20260504030703 | 37 | 220 | 3.0 | 3.0 | 0.00 | 0.00 | 0.00 | 77 | 1017.1 |
| 20260504030204 | 37 | 220 | 3.0 | 3.0 | 0.00 | 0.00 | 0.00 | 76 | 1017.1 |
| 20260504025704 | 38 | 220 | 3.0 | 3.0 | 0.00 | 0.00 | 0.00 | 76 | 1017.1 |
| 20260504025204 | 38 | 220 | 3.0 | 3.0 | 0.00 | 0.00 | 0.00 | 76 | 1017.0 |
| 20260504024704 | 38 | 220 | 3.0 | 3.0 | 0.00 | 0.00 | 0.00 | 75 | 1017.0 |
| 20260504023703 | 38 | 220 | 3.0 | 3.0 | 0.00 | 0.00 | 0.00 | 74 | 1017.1 |
| 20260504023203 | 39 | 220 | 3.0 | 3.0 | 0.00 | 0.00 | 0.00 | 74 | 1017.0 |
| 20260504022704 | 39 | 220 | 3.0 | 3.0 | 0.00 | 0.00 | 0.00 | 73 | 1017.0 |
| 20260504021703 | 39 | 220 | 3.0 | 3.0 | 0.00 | 0.00 | 0.00 | 72 | 1017.0 |
| 20260504021204 | 39 | 220 | 3.0 | 3.0 | 0.00 | 0.00 | 0.00 | 71 | 1017.0 |
| 20260504020204 | 40 | 220 | 3.0 | 3.0 | 0.00 | 0.00 | 0.00 | 71 | 1017.1 |
| 20260504015703 | 40 | 220 | 3.0 | 3.0 | 0.00 | 0.00 | 0.00 | 70 | 1017.1 |
| 20260504015204 | 40 | 220 | 3.0 | 3.0 | 0.00 | 0.00 | 0.00 | 70 | 1016.9 |
| 20260504014704 | 41 | 220 | 3.0 | 3.0 | 0.00 | 0.00 | 0.00 | 69 | 1016.9 |
| 20260504013703 | 41 | 220 | 3.0 | 3.0 | 0.00 | 0.00 | 0.00 | 67 | 1016.8 |
| 20260504013204 | 42 | 220 | 3.0 | 3.0 | 0.00 | 0.00 | 0.00 | 67 | 1016.7 |
| 20260504012703 | 42 | 220 | 3.0 | 3.0 | 0.00 | 0.00 | 0.00 | 65 | 1016.6 |
| 20260504012204 | 42 | 220 | 3.0 | 3.0 | 0.00 | 0.00 | 0.00 | 65 | 1016.6 |
| 20260504011204 | 43 | 220 | 3.0 | 3.0 | 0.00 | 0.00 | 0.00 | 63 | 1016.6 |
| 20260504010704 | 44 | 220 | 3.0 | 3.0 | 0.00 | 0.00 | 0.00 | 63 | 1016.6 |
| 20260504010204 | 44 | 221 | 6.0 | 8.0 | 0.00 | 0.00 | 0.00 | 62 | 1016.5 |
| 20260504005204 | 45 | 230 | 8.0 | 8.0 | 0.00 | 0.00 | 0.00 | 60 | 1016.4 |
| 20260504004704 | 45 | 230 | 8.0 | 8.0 | 0.00 | 0.00 | 0.00 | 59 | 1016.4 |
| 20260504004203 | 46 | 230 | 8.0 | 8.0 | 0.00 | 0.00 | 0.00 | 58 | 1016.2 |
| 20260504003704 | 46 | 230 | 8.0 | 8.0 | 0.00 | 0.00 | 0.00 | 58 | 1016.3 |
| 20260504003203 | 47 | 230 | 8.0 | 8.0 | 0.00 | 0.00 | 0.00 | 55 | 1016.2 |
| 20260504002704 | 47 | 230 | 8.0 | 8.0 | 0.00 | 0.00 | 0.00 | 55 | 1016.2 |
| 20260504002204 | 47 | 230 | 8.0 | 8.0 | 0.00 | 0.00 | 0.00 | 54 | 1016.2 |
| 20260504001203 | 48 | 230 | 8.0 | 8.0 | 0.00 | 0.00 | 0.00 | 53 | 1016.0 |
| 20260504000704 | 48 | 230 | 8.0 | 8.0 | 0.00 | 0.00 | 0.00 | 52 | 1016.0 |
| 20260504000204 | 49 | 231 | 10.0 | 13.0 | 0.00 | 0.00 | 0.00 | 52 | 1016.0 |
| 20260503235703 | 49 | 240 | 13.0 | 13.0 | 0.00 | 0.00 | 0.00 | 52 | 1016.1 |
| 20260503235204 | 49 | 240 | 13.0 | 13.0 | 0.00 | 0.00 | 0.00 | 49 | 1016.0 |
| 20260503234204 | 50 | 240 | 13.0 | 13.0 | 0.00 | 0.00 | 0.00 | 48 | 1016.1 |
| 20260503233704 | 50 | 240 | 13.0 | 13.0 | 0.00 | 0.00 | 0.00 | 48 | 1015.9 |
| 20260503233203 | 50 | 240 | 13.0 | 13.0 | 0.00 | 0.00 | 0.00 | 47 | 1015.9 |
| 20260503232204 | 51 | 240 | 13.0 | 13.0 | 0.00 | 0.00 | 0.00 | 46 | 1015.9 |
| 20260503231704 | 51 | 240 | 13.0 | 13.0 | 0.00 | 0.00 | 0.00 | 46 | 1015.9 |
| 20260503231204 | 51 | 240 | 13.0 | 13.0 | 0.00 | 0.00 | 0.00 | 45 | 1015.8 |
| 20260503230704 | 51 | 240 | 13.0 | 13.0 | 0.00 | 0.00 | 0.00 | 45 | 1015.8 |
| 20260503230203 | 51 | 240 | 13.0 | 21.0 | 0.00 | 0.00 | 0.00 | 45 | 1015.9 |
| 20260503225704 | 52 | 250 | 13.0 | 21.0 | 0.00 | 0.00 | 0.00 | 44 | 1015.8 |
| 20260503225204 | 52 | 250 | 13.0 | 21.0 | 0.00 | 0.00 | 0.00 | 43 | 1015.8 |
| 20260503224704 | 52 | 250 | 13.0 | 21.0 | 0.00 | 0.00 | 0.00 | 42 | 1015.8 |
| 20260503224203 | 52 | 250 | 13.0 | 21.0 | 0.00 | 0.00 | 0.00 | 40 | 1015.9 |
| 20260503223704 | 53 | 250 | 13.0 | 21.0 | 0.00 | 0.00 | 0.00 | 39 | 1015.9 |
| 20260503222703 | 53 | 250 | 13.0 | 21.0 | 0.00 | 0.00 | 0.00 | 35 | 1015.9 |
| 20260503222204 | 53 | 250 | 13.0 | 21.0 | 0.00 | 0.00 | 0.00 | 38 | 1015.9 |
| 20260503221704 | 53 | 250 | 13.0 | 21.0 | 0.00 | 0.00 | 0.00 | 37 | 1016.0 |
| 20260503221204 | 54 | 250 | 13.0 | 21.0 | 0.00 | 0.00 | 0.00 | 34 | 1015.9 |
| 20260503220704 | 54 | 250 | 13.0 | 21.0 | 0.00 | 0.00 | 0.00 | 34 | 1016.0 |
| 20260503220204 | 54 | 250 | 13.0 | 21.0 | 0.00 | 0.00 | 0.00 | 33 | 1015.9 |
| 20260503215204 | 55 | 260 | 14.0 | 21.0 | 0.00 | 0.00 | 0.00 | 33 | 1016.0 |
| 20260503214204 | 56 | 260 | 14.0 | 21.0 | 0.00 | 0.00 | 0.00 | 35 | 1016.1 |
| 20260503213704 | 57 | 260 | 14.0 | 21.0 | 0.00 | 0.00 | 0.00 | 34 | 1016.1 |
| 20260503212704 | 57 | 260 | 14.0 | 21.0 | 0.00 | 0.00 | 0.00 | 32 | 1016.1 |
| 20260503212203 | 58 | 260 | 14.0 | 21.0 | 0.00 | 0.00 | 0.00 | 31 | 1016.0 |
| 20260503211704 | 58 | 260 | 14.0 | 21.0 | 0.00 | 0.00 | 0.00 | 33 | 1016.0 |
| 20260503211204 | 58 | 260 | 14.0 | 21.0 | 0.00 | 0.00 | 0.00 | 32 | 1016.2 |
| 20260503210703 | 58 | 260 | 14.0 | 21.0 | 0.00 | 0.00 | 0.00 | 34 | 1016.2 |
| 20260503210203 | 57 | 259 | 14.0 | 23.0 | 0.00 | 0.00 | 0.00 | 36 | 1016.3 |
| 20260503205704 | 57 | 230 | 14.0 | 23.0 | 0.00 | 0.00 | 0.00 | 31 | 1016.1 |
| 20260503205204 | 57 | 230 | 14.0 | 23.0 | 0.00 | 0.00 | 0.00 | 32 | 1016.2 |
| 20260503204703 | 58 | 230 | 14.0 | 23.0 | 0.00 | 0.00 | 0.00 | 33 | 1016.4 |
| 20260503204204 | 58 | 230 | 14.0 | 23.0 | 0.00 | 0.00 | 0.00 | 34 | 1016.4 |
| 20260503203704 | 58 | 230 | 14.0 | 23.0 | 0.00 | 0.00 | 0.00 | 33 | 1016.4 |
| 20260503203204 | 58 | 230 | 14.0 | 23.0 | 0.00 | 0.00 | 0.00 | 32 | 1016.5 |
| 20260503202704 | 58 | 230 | 14.0 | 23.0 | 0.00 | 0.00 | 0.00 | 34 | 1016.6 |
| 20260503202204 | 58 | 230 | 14.0 | 23.0 | 0.00 | 0.00 | 0.00 | 31 | 1016.6 |
| 20260503201704 | 59 | 230 | 14.0 | 23.0 | 0.00 | 0.00 | 0.00 | 30 | 1016.7 |
| 20260503201204 | 58 | 230 | 14.0 | 23.0 | 0.00 | 0.00 | 0.00 | 35 | 1016.8 |
| 20260503200704 | 58 | 230 | 14.0 | 23.0 | 0.00 | 0.00 | 0.00 | 34 | 1016.8 |
| 20260503200204 | 57 | 230 | 12.0 | 23.0 | 0.00 | 0.00 | 0.00 | 33 | 1016.8 |
| 20260503195204 | 58 | 250 | 10.0 | 18.0 | 0.00 | 0.00 | 0.00 | 33 | 1016.9 |
| 20260503194704 | 57 | 250 | 10.0 | 18.0 | 0.00 | 0.00 | 0.00 | 33 | 1017.0 |
| 20260503193703 | 57 | 250 | 10.0 | 18.0 | 0.00 | 0.00 | 0.00 | 30 | 1017.0 |
| 20260503193203 | 57 | 250 | 10.0 | 18.0 | 0.00 | 0.00 | 0.00 | 30 | 1017.1 |
| 20260503192703 | 57 | 250 | 10.0 | 18.0 | 0.00 | 0.00 | 0.00 | 28 | 1017.1 |
| 20260503192204 | 57 | 250 | 10.0 | 18.0 | 0.00 | 0.00 | 0.00 | 31 | 1017.1 |
| 20260503191704 | 57 | 250 | 10.0 | 18.0 | 0.00 | 0.00 | 0.00 | 33 | 1017.2 |
| 20260503191204 | 56 | 250 | 10.0 | 18.0 | 0.00 | 0.00 | 0.00 | 33 | 1017.3 |
| 20260503190704 | 56 | 250 | 10.0 | 18.0 | 0.00 | 0.00 | 0.00 | 35 | 1017.4 |
| 20260503190204 | 55 | 249 | 7.0 | 21.0 | 0.00 | 0.00 | 0.00 | 33 | 1017.3 |
| 20260503185703 | 54 | 170 | 5.0 | 21.0 | 0.00 | 0.00 | 0.00 | 35 | 1017.5 |
| 20260503184703 | 55 | 170 | 5.0 | 21.0 | 0.00 | 0.00 | 0.00 | 29 | 1017.5 |
| 20260503184204 | 55 | 170 | 5.0 | 21.0 | 0.00 | 0.00 | 0.00 | 34 | 1017.5 |
| 20260503183704 | 55 | 170 | 5.0 | 21.0 | 0.00 | 0.00 | 0.00 | 32 | 1017.5 |
| 20260503183204 | 55 | 170 | 5.0 | 21.0 | 0.00 | 0.00 | 0.00 | 33 | 1017.6 |
| 20260503182704 | 55 | 170 | 5.0 | 21.0 | 0.00 | 0.00 | 0.00 | 33 | 1017.6 |
| 20260503182204 | 54 | 170 | 5.0 | 21.0 | 0.00 | 0.00 | 0.00 | 36 | 1017.7 |
| 20260503181704 | 54 | 170 | 5.0 | 21.0 | 0.00 | 0.00 | 0.00 | 32 | 1017.8 |
| 20260503181205 | 54 | 170 | 5.0 | 21.0 | 0.00 | 0.00 | 0.00 | 37 | 1017.8 |
| 20260503180704 | 54 | 170 | 5.0 | 21.0 | 0.00 | 0.00 | 0.00 | 33 | 1017.7 |
| 20260503175704 | 53 | 230 | 6.0 | 6.0 | 0.00 | 0.00 | 0.00 | 33 | 1017.9 |
| 20260503175204 | 54 | 230 | 6.0 | 6.0 | 0.00 | 0.00 | 0.00 | 33 | 1017.9 |
| 20260503174704 | 54 | 230 | 6.0 | 6.0 | 0.00 | 0.00 | 0.00 | 33 | 1017.9 |
| 20260503174204 | 53 | 230 | 6.0 | 6.0 | 0.00 | 0.00 | 0.00 | 34 | 1018.0 |
| 20260503173704 | 53 | 230 | 6.0 | 6.0 | 0.00 | 0.00 | 0.00 | 36 | 1018.0 |
| 20260503172704 | 53 | 230 | 6.0 | 6.0 | 0.00 | 0.00 | 0.00 | 35 | 1018.3 |
| 20260503172203 | 53 | 230 | 6.0 | 6.0 | 0.00 | 0.00 | 0.00 | 32 | 1018.3 |
| 20260503171704 | 53 | 230 | 6.0 | 6.0 | 0.00 | 0.00 | 0.00 | 36 | 1018.4 |
| 20260503170704 | 52 | 230 | 6.0 | 6.0 | 0.00 | 0.00 | 0.00 | 33 | 1018.6 |
| 20260503170204 | 52 | 231 | 6.0 | 7.0 | 0.00 | 0.00 | 0.00 | 36 | 1018.6 |
| 20260503160204 | 48 | 263 | 9.0 | 21.0 | 0.00 | 0.00 | 0.00 | 37 | 1018.8 |
| 20260503140204 | 41 | 338 | 9.0 | 18.0 | 0.00 | 0.00 | 0.00 | 47 | 1018.6 |